Location: Anglesey
(53.1800°N, 4.2200°W)
Time: 08:18:18
(UTC+01:00)

Envisat - Pass Details

Date: 13 October 2017
Orbit: 764 x 766 km, 98.2° (Epoch: 18 October)

Event Time Altitude Azimuth Distance (km) Brightness Sun altitude
Exits shadow 22:36:33 12° 251° (WSW) 2,199 5.6 -36.1°
Maximum altitude 22:38:33 14° 276° (W) 2,043 5.7 -36.3°
Drops below altitude 10° 22:41:09 10° 307° (NW) 2,312 6.2 -36.6°
Sets 22:44:41 0° 332° (NNW) 3,245 7.1 -37.0°
